Other Surface Observations
Issued by NWS Charleston, SC

Home | Current Version | Previous Version | Text Only | Print | Product List | Glossary On
Versions: 1 2 3 4 5 6 7 8 9 10 11 12 13 14 15 16 17 18 19 20 21 22 23 24 25 26 27 28 29 30 31 32 33 34 35 36 37 38 39 40 41 42 43 44 45 46 47 48 49 50
000
SXUS52 KCHS 311827
OSOCHS

MARINE OBSERVATIONS
NATIONAL WEATHER SERVICE CHARLESTON SC
200 PM EDT FRI JUL 31 2015

...DOWNTOWN CHARLESTON AND HARBOR...

CITY           SKY/WX    TMP DP  RH WIND       PRES   REMARKS
WATERFRONT PRK   N/A     83  76  79 VRB3      29.92S HX  91

...LAKE MOULTRIE...

CITY           SKY/WX    TMP DP  RH WIND       PRES   REMARKS
PINOPOLIS      NOT AVBL

...LAKE AND SUPPLEMENTAL COASTAL OBSERVATIONS...

STATION/POSITION TIME  TEMP    WIND        PRES    WAVE   SWELL
                       AIR SEA DIR/SP/G            HT/PER HT/PER/DIR
                 (UTC) (F)     (DEG/KT/KT) (MB)    (FT/S) (FT/S/D)
FORT PULASKI     1800   82 87  140/  7/ 10 1015.1R
SAPELO ISLAND    1800   90     160/  9     1014.0S
UPR LAKE MARION  NOT AVBL
WINYAH BAY       1745   85      50/  2     1013.0F
LAKE MURRAY      1800   87     110/  5/  7 1013.2F
ACE BASIN NERRS  1745   89        CALM     1014.0F


...C-MAN AND BUOY OBSERVATIONS...

STATION/POSITION TIME  TEMP    WIND        PRES    WAVE   SWELL
                       AIR SEA DIR/SP/G            HT/PER HT/PER/DIR
                 (UTC) (F)     (DEG/KT/KT) (MB)    (FT/S) (FT/S/D)
BUOY 41004       1750   81 84  210/ 12/ 14 1013.8R   2/ 8   2/ 8
BUOY 41008       1750   82 83  180/  8/ 10 1014.7F   1/ 4   2/150/ 4
FOLLY BEACH CMAN 1800   81     210/ 11/ 13 1013.9F
CAPERS NS BUOY   1708   83     260/ 10/ 14 1014.1F
FRIPP NS BUOY    1700   83     220/ 12/ 12 1013.8F
5E ST. MARYS GA  1721      85                N/A     2/ 5


STATION/POSITION TIME  TEMP    WIND        PRES    WAVE   SWELL
                       AIR SEA DIR/SP/G            HT/PER HT/PER/DIR
                 (UTC) (F)     (DEG/KT/KT) (MB)    (FT/S) (FT/S/D)
FRYING PAN BUOY  1750   84 85  240/  8/ 10 1013.5F   3/ 5   3/220/ 5
BUOY 41025       1750   82 86   10/ 10/ 12 1011.9F   4/ 9   3/150/ 9
CAPE LOOKOUT NC  1800   87     280/  7/  9 1011.6F
BUOY 41002       1750   81 81  250/ 17/ 21 1015.4F   7/ 8
BUOY 41010       1720   84 84  230/ 10/ 12 1017.2R
ST AUGUSTINE FL  1800   82 83  110/ 10/ 11 1015.2F

$$



USA.gov is the U.S. government's official web portal to all federal, state and local government web resources and services.